Regional Weather Roundup
Issued by NWS

Home | Current Version | Previous Version | Graphics & Text | Print | Product List | Glossary On
Versions: 1 2 3 4 5 6 7 8 9 10 11 12 13 14 15 16 17 18 19 20 21 22 23 24 25 26 27 28 29 30 31 32 33 34 35 36 37 38 39 40 41 42 43 44 45 46 47 48 49 50
000
ASUS43 KIND 300859
RWRIN

WEATHER ROUNDUP FOR INDIANA
NATIONAL WEATHER SERVICE INDIANAPOLIS IN
500 AM EDT THU MAR 30 2017

NOTE: "FAIR" INDICATES FEW OR NO CLOUDS BELOW 12,000 FEET WITH NO
SIGNIFICANT WEATHER AND/OR OBSTRUCTIONS TO VISIBILITY.

* - STATION DOES NOT REPORT WEATHER SUCH AS PRECIPITATION OR FOG.

+ - STATION NOT QUALITY CONTROLLED BY THE NATIONAL WEATHER SERVICE.
    USE DATA WITH CAUTION...ESPECIALLY DEWPOINT AND RELATIVE
    HUMIDITY OBSERVATIONS.

INZ001>003-010>013-019-020-301000-
NORTHWEST INDIANA

CITY           SKY/WX    TMP DP  RH WIND       PRES   REMARKS
KNOX *+        CLOUDY    43  27  52 NE12      29.90R
MONTICELLO +   CLOUDY    46  37  72 E15G21    29.82F

$$

LMZ046-743>745-301000-
SOUTHERN LAKE MICHIGAN

STATION/POSITION TIME  TEMP    WIND        PRES    WAVE
                       AIR SEA DIR/SP/G            HT
                 (UTC) (F)     (DEG/KT/KT) (MB)    (FT)
BURNS HARBOR     0840   42      30/ 13/ 15 1014.2R
MICHIGAN CITY    0830   42      60/ 18/ 21   N/A

$$

INZ004-005-014>016-021>024-301000-
NORTH CENTRAL INDIANA

CITY           SKY/WX    TMP DP  RH WIND       PRES   REMARKS
GOSHEN         LGT RAIN  43  34  70 E22G32    29.87F
SOUTH BEND     LGT RAIN  42  36  79 NE10      29.94S

$$

INZ006>009-017-018-025>027-301000-
NORTHEAST INDIANA

CITY           SKY/WX    TMP DP  RH WIND       PRES   REMARKS
ANGOLA *+      MOCLDY    43  34  70 E20       29.96F
FORT WAYNE     CLOUDY    43  36  75 E25G31    29.92F
KENDALLVILLE + LGT RAIN  42  34  73 E16G25    29.92F

$$

INZ028-029-035-036-043>045-051>053-301000-
WEST CENTRAL INDIANA

CITY           SKY/WX    TMP DP  RH WIND       PRES   REMARKS
CRAWFORDSVL +  CLOUDY    51  44  77 E14       29.79F
GREENCASTLE +  MOCLDY    52  45  76 E9        29.79F
LAFAYETTE      CLOUDY    47  42  83 E15       29.81F
TERRE HAUTE    CLOUDY    56  46  69 SE8       29.76F

$$

INZ030>032-037>040-046>048-054>057-064-065-301000-
CENTRAL INDIANA

CITY           SKY/WX    TMP DP  RH WIND       PRES   REMARKS
GREENWOOD *+   CLOUDY    53  46  75 SE7       29.84F
INDIANAPOLIS   CLOUDY    54  44  69 SE13      29.82F
-EAGLE CREEK   CLOUDY    54  43  66 E8        29.82F
KOKOMO +       CLOUDY    45  38  76 E20       29.86S
SHELBYVILLE    CLOUDY    54  44  69 SE10      29.83F

$$

INZ033-034-041-042-049-050-058-059-301000-
EAST CENTRAL INDIANA

CITY           SKY/WX    TMP DP  RH WIND       PRES   REMARKS
MUNCIE         CLOUDY    46  39  76 E17G26    29.86F
RICHMOND +     CLOUDY    46  41  81 E13       29.90F

$$

INZ060-061-067>069-081>083-085>088-301000-
SOUTHWEST INDIANA

CITY           SKY/WX    TMP DP  RH WIND       PRES   REMARKS
EVANSVILLE     CLOUDY    61  52  72 VRB5      29.74F
HUNTINGBURG *+ CLOUDY    58  51  78 SE15      29.76F

$$

INZ062-063-066-070>080-084-089>092-301000-
SOUTH CENTRAL AND SOUTHEAST INDIANA

CITY           SKY/WX    TMP DP  RH WIND       PRES   REMARKS
BLOOMINGTON    PTCLDY    54  45  71 SE10      29.78F
MADISON *+     CLOUDY    52  45  76 E8        29.85F
SEYMOUR +      MOCLDY    54  46  76 SE7       29.83F

$$





USA.gov is the U.S. government's official web portal to all federal, state and local government web resources and services.